EW2244 Weather Reports


Display with metric or nautical units.
time (UTC)temp
F
wind
direction
speed
MPH
gust
MPH
rain 1hr
in
rain 24hr
in
rain mn
in
humidity
%
barometer
mb
20260902125126 84 102 2.0 3.0 0.00 0.00 0.00 54 1019.4
20260902124152 84 163 1.0 3.0 0.00 0.00 0.00 55 1019.5
20260902123131 83 50 1.0 4.0 0.00 0.00 0.00 62 1019.6
20260902122132 83 86 0.0 3.0 0.00 0.00 0.00 55 1019.7
20260902121135 83 110 1.0 5.0 0.00 0.00 0.00 58 1019.7
20260902120135 83 192 1.0 5.0 0.00 0.00 0.00 58 1019.8
20260902115201 83 27 2.0 5.0 0.00 0.00 0.00 61 1019.9
20260902114141 83 72 2.0 6.0 0.00 0.00 0.00 60 1020.1
20260902113141 82 35 1.0 5.0 0.00 0.00 0.00 60 1020.1
20260902112144 82 86 0.0 3.0 0.00 0.00 0.00 61 1020.2
20260902111147 82 86 0.0 2.0 0.00 0.00 0.00 60 1020.4
20260902110146 81 86 1.0 3.0 0.00 0.00 0.00 59 1020.5
20260902105142 81 86 0.0 2.0 0.00 0.00 0.00 57 1020.6
20260902104138 80 86 0.0 2.0 0.00 0.00 0.00 58 1020.8
20260902103137 79 86 1.0 4.0 0.00 0.00 0.00 60 1020.8
20260902102157 80 65 1.0 3.0 0.00 0.00 0.00 66 1020.9
20260902101156 80 27 1.0 5.0 0.00 0.00 0.00 65 1020.9
20260902100134 80 159 0.0 3.0 0.00 0.00 0.00 62 1020.9
20260902095137 80 31 1.0 4.0 0.00 0.00 0.00 63 1020.8
20260902094139 79 28 1.0 5.0 0.00 0.00 0.00 62 1021.0
20260902093143 79 22 0.0 2.0 0.00 0.00 0.00 64 1021.1
20260902092145 78 20 3.0 4.0 0.00 0.00 0.00 64 1021.0
20260902091124 78 21 0.0 2.0 0.00 0.00 0.00 65 1021.0
20260902090125 77 21 1.0 2.0 0.00 0.00 0.00 68 1021.2
20260902085127 76 21 1.0 2.0 0.00 0.00 0.00 69 1021.1
20260902084132 76 21 0.0 2.0 0.00 0.00 0.00 69 1021.0
20260902083134 75 21 1.0 2.0 0.00 0.00 0.00 72 1021.0
20260902082134 75 20 1.0 4.0 0.00 0.00 0.00 74 1020.9
20260902081136 74 20 0.0 2.0 0.00 0.00 0.00 77 1020.9
20260902080143 74 20 0.0 0.0 0.00 0.00 0.00 74 1020.8
20260902075124 74 20 0.0 1.0 0.00 0.00 0.00 72 1020.8
20260902074126 73 20 0.0 3.0 0.00 0.00 0.00 73 1020.6
20260902073148 73 20 1.0 4.0 0.00 0.00 0.00 75 1020.6
20260902072133 72 11 1.0 4.0 0.00 0.00 0.00 74 1020.5
20260902071136 72 5 1.0 4.0 0.00 0.00 0.00 75 1020.6
20260902070138 72 26 0.0 2.0 0.00 0.00 0.00 77 1020.5
20260902065139 72 26 1.0 3.0 0.00 0.00 0.00 76 1020.4
20260902064125 72 30 0.0 3.0 0.00 0.00 0.00 77 1020.3
20260902063127 72 32 2.0 3.0 0.00 0.00 0.00 77 1020.2
20260902062129 71 360 0.0 0.0 0.00 0.00 0.00 78 1020.3
20260902061130 71 360 0.0 2.0 0.00 0.00 0.00 79 1020.2
20260902060151 70 355 0.0 1.0 0.00 0.00 0.00 80 1020.2
20260902055136 70 355 0.0 2.0 0.00 0.00 0.00 80 1020.2
20260902054138 70 355 1.0 4.0 0.00 0.00 0.00 79 1020.1
20260902053138 70 360 1.0 5.0 0.00 0.00 0.00 76 1019.8
20260902052141 70 338 0.0 3.0 0.00 0.00 0.00 77 1019.8
20260902051125 70 106 0.0 3.0 0.00 0.00 0.00 77 1019.8
20260902050127 70 202 1.0 3.0 0.00 0.00 0.00 76 1019.8
20260902045127 70 93 0.0 2.0 0.00 0.00 0.00 76 1019.8
20260902044128 70 153 0.0 2.0 0.00 0.00 0.00 77 1019.8
20260902043150 70 71 0.0 4.0 0.00 0.00 0.00 76 1019.7
20260902042134 71 113 1.0 4.0 0.00 0.00 0.00 76 1019.7
20260902041135 71 34 1.0 3.0 0.00 0.00 0.00 76 1019.7
20260902040138 70 148 0.0 3.0 0.00 0.00 0.00 75 1019.6
20260902035139 71 188 1.0 4.0 0.00 0.00 0.00 75 1019.7
20260902034125 71 128 1.0 3.0 0.00 0.00 0.00 75 1019.6
20260902033145 71 127 1.0 4.0 0.00 0.00 0.00 74 1019.6
20260902032125 71 28 0.0 3.0 0.00 0.00 0.00 74 1019.7
20260902031126 71 162 0.0 5.0 0.00 0.00 0.00 75 1019.7
20260902030150 71 28 1.0 4.0 0.00 0.00 0.00 75 1019.8
20260902025131 71 345 1.0 5.0 0.00 0.00 0.00 75 1019.7
20260902024154 71 117 1.0 5.0 0.00 0.00 0.00 77 1019.6
20260902023135 70 48 1.0 5.0 0.00 0.00 0.00 78 1019.6
20260902022136 70 321 0.0 6.0 0.00 0.00 0.00 79 1019.6
20260902021159 70 26 1.0 3.0 0.00 0.00 0.00 80 1019.7
20260902020138 70 168 1.0 3.0 0.00 0.00 0.00 81 1019.6
20260902015137 71 101 1.0 3.0 0.00 0.00 0.00 81 1019.6
20260902014159 71 5 1.0 3.0 0.00 0.00 0.00 79 1019.5
20260902013139 70 273 1.0 3.0 0.00 0.00 0.00 78 1019.5
20260902012146 71 238 0.0 2.0 0.00 0.00 0.00 79 1019.5
20260902011126 70 238 1.0 4.0 0.00 0.00 0.00 78 1019.5
20260902010126 70 221 0.0 1.0 0.00 0.00 0.00 80 1019.7
20260902005127 70 221 0.0 1.0 0.00 0.00 0.00 78 1019.6
20260902004133 71 221 0.0 2.0 0.00 0.00 0.00 78 1019.6
20260902003155 71 222 2.0 5.0 0.00 0.00 0.00 77 1019.7
20260902002135 71 250 1.0 3.0 0.00 0.00 0.00 77 1019.7
20260902001136 72 35 0.0 0.0 0.00 0.00 0.00 76 1019.7
20260902000157 72 35 0.0 2.0 0.00 0.00 0.00 75 1019.6
20260901235142 73 65 0.0 4.0 0.00 0.00 0.00 74 1019.6
20260901234204 73 53 1.0 4.0 0.00 0.00 0.00 73 1019.6
20260901233124 73 113 1.0 5.0 0.00 0.00 0.00 72 1019.7
20260901232144 73 51 1.0 4.0 0.00 0.00 0.00 72 1019.7
20260901231125 73 128 0.0 3.0 0.00 0.00 0.00 73 1019.6
20260901230125 73 146 1.0 4.0 0.00 0.00 0.00 74 1019.7
20260901225125 73 157 1.0 3.0 0.00 0.00 0.00 74 1019.6
20260901224205 73 165 1.0 3.0 0.00 0.00 0.00 74 1019.8
20260901223137 73 19 1.0 4.0 0.00 0.00 0.00 75 1019.7
20260901222137 73 294 0.0 3.0 0.00 0.00 0.00 75 1019.6
20260901221145 72 130 0.0 3.0 0.00 0.00 0.00 76 1019.6
20260901220136 73 59 0.0 3.0 0.00 0.00 0.00 75 1019.6
20260901215134 73 49 0.0 2.0 0.00 0.00 0.00 75 1019.6
20260901214135 73 99 1.0 3.0 0.00 0.00 0.00 75 1019.7
20260901213141 73 153 1.0 6.0 0.00 0.00 0.00 75 1019.6
20260901212139 73 54 0.0 3.0 0.00 0.00 0.00 75 1019.6
20260901211138 72 50 0.0 4.0 0.00 0.00 0.00 78 1019.6
20260901210136 71 225 0.0 2.0 0.00 0.00 0.00 81 1019.7
20260901205133 71 225 0.0 2.0 0.00 0.00 0.00 82 1019.7
20260901204203 71 225 0.0 3.0 0.00 0.00 0.00 82 1019.7
20260901203133 71 225 1.0 2.0 0.00 0.00 0.00 80 1019.6
20260901202146 72 226 0.0 3.0 0.00 0.00 0.00 80 1019.6
20260901201142 71 238 1.0 5.0 0.00 0.00 0.00 80 1019.6
20260901200159 73 88 1.0 2.0 0.00 0.00 0.00 78 1019.4
20260901195138 74 86 0.0 2.0 0.00 0.00 0.00 76 1019.5
20260901194137 75 86 0.0 3.0 0.00 0.00 0.00 74 1019.3
20260901193134 75 114 0.0 2.0 0.00 0.00 0.00 74 1019.3
20260901192148 75 117 1.0 2.0 0.00 0.00 0.00 74 1019.2
20260901191203 75 100 0.0 3.0 0.00 0.00 0.00 76 1019.1
20260901190159 74 230 0.0 1.0 0.00 0.00 0.00 76 1019.0
20260901185129 74 230 0.0 3.0 0.00 0.00 0.00 78 1018.9
20260901184146 74 230 0.0 2.0 0.00 0.00 0.00 78 1018.8
20260901183134 74 228 0.0 1.0 0.00 0.00 0.00 79 1018.6
20260901182207 75 228 1.0 2.0 0.00 0.00 0.00 78 1018.5
20260901181137 75 228 0.0 1.0 0.00 0.00 0.00 76 1018.6
20260901180159 76 228 0.0 3.0 0.00 0.00 0.00 76 1018.6
20260901175136 76 228 0.0 0.0 0.00 0.00 0.00 73 1018.5
20260901174133 77 228 0.0 1.0 0.00 0.00 0.00 75 1018.5
20260901173131 77 228 0.0 1.0 0.00 0.00 0.00 75 1018.3
20260901172133 78 228 0.0 3.0 0.00 0.00 0.00 71 1018.3
20260901171130 79 228 0.0 1.0 0.00 0.00 0.00 71 1018.2
20260901170149 79 228 0.0 1.0 0.00 0.00 0.00 68 1018.2
20260901165148 79 228 0.0 2.0 0.00 0.00 0.00 68 1018.3
20260901164148 80 228 0.0 4.0 0.00 0.00 0.00 70 1018.3
20260901163149 81 217 0.0 0.0 0.00 0.00 0.00 65 1018.3
20260901162208 81 217 0.0 0.0 0.00 0.00 0.00 61 1018.3
20260901161145 81 217 0.0 0.0 0.00 0.00 0.00 60 1018.3
20260901160141 80 217 0.0 2.0 0.00 0.00 0.00 63 1018.3
20260901155159 80 217 0.0 3.0 0.00 0.00 0.00 66 1018.5
20260901154139 80 217 1.0 2.0 0.00 0.00 0.00 65 1018.4
20260901153137 81 217 0.0 1.0 0.00 0.00 0.00 63 1018.5
20260901152136 81 217 0.0 2.0 0.00 0.00 0.00 61 1018.4
20260901151136 82 217 0.0 2.0 0.00 0.00 0.00 62 1018.5
20260901150136 83 232 0.0 3.0 0.00 0.00 0.00 60 1018.5
20260901145133 83 232 1.0 5.0 0.00 0.00 0.00 59 1018.5
20260901144131 83 123 0.0 3.0 0.00 0.00 0.00 59 1018.6
20260901143210 83 128 0.0 2.0 0.00 0.00 0.00 60 1018.6
20260901142147 83 95 2.0 3.0 0.00 0.00 0.00 62 1018.7
20260901141150 83 19 0.0 3.0 0.00 0.00 0.00 64 1018.8
20260901140146 82 17 3.0 5.0 0.00 0.00 0.00 64 1018.8
20260901135142 82 25 2.0 4.0 0.00 0.00 0.00 66 1018.8
20260901134141 81 22 3.0 6.0 0.00 0.00 0.00 66 1018.9
20260901133141 81 23 0.0 4.0 0.00 0.00 0.00 62 1018.9
20260901132204 81 101 0.0 6.0 0.00 0.00 0.00 61 1019.0
20260901131139 81 44 0.0 3.0 0.00 0.00 0.00 62 1019.0
20260901130158 81 46 1.0 5.0 0.00 0.00 0.00 66 1019.1